Regional Weather Roundup
Issued by NWS Sioux Falls, SD

Home | Current Version | Previous Version | Text Only | Print | Product List | Glossary On
Versions: 1 2 3 4 5 6 7 8 9 10 11 12 13 14 15 16 17 18 19 20 21 22 23 24 25 26 27 28 29 30 31 32 33 34 35 36 37 38 39 40 41 42 43 44 45 46 47 48 49 50
244
ASUS43 KFSD 122110
RWRFSD

WEATHER ROUNDUP FOR SE SOUTH DAKOTA/SW MINNESOTA/NW IOWA
NATIONAL WEATHER SERVICE SIOUX FALLS SD
300 PM CST TUE DEC 12 2017

NOTE: "FAIR" INDICATES FEW OR NO CLOUDS BELOW 12,000 FEET WITH NO
SIGNIFICANT WEATHER AND OR OBSTRUCTIONS TO VISIBILITY.


SDZ038>040-050-052>070-122200-
SOUTHEAST SOUTH DAKOTA

CITY           SKY/WX    TMP DP  RH WIND       PRES   REMARKS
BROOKINGS      MOSUNNY   39  29  67 SW15      29.92F
CHAMBERLAIN    SUNNY     55  21  26 W12       29.95F
HURON          MOSUNNY   48  27  44 W8        29.93F
MADISON        CLOUDY    39  34  81 SW13      29.94F
MITCHELL       SUNNY     47  29  49 W13       29.97F
SIOUX FALLS    MOSUNNY   41  30  65 W9        29.98F
WINNER         FAIR      60  17  18 W14       29.95F
YANKTON        SUNNY     45  27  49 SW12      30.00F
$$

MNZ071-072-080-081-089-090-097-098-122200-
SOUTHWEST MINNESOTA

CITY           SKY/WX    TMP DP  RH WIND       PRES   REMARKS
FAIRMONT       CLOUDY    34  24  67 SW14      29.99F WCI  25
JACKSON        SUNNY     36  27  69 MISG      29.98F
LUVERNE        CLOUDY    36  28  75 W13       30.00F
MARSHALL       MOSUNNY   40  29  64 W14       29.91F
MONTEVIDEO     PTSUNNY   43  30  61 W6G16     29.89F
PIPESTONE      MOSUNNY   37  28  70 SW13      29.94F
REDWOOD FALLS  MOSUNNY   37  26  64 SW9       29.93F
TRACY          PTSUNNY   39  31  72 SW16G24   29.93F
WINDOM         MOSUNNY   36  21  55 SW15      29.96F
WORTHINGTON    PTSUNNY   34  26  72 SW15      29.97F WCI  24
$$

IAZ001>003-012>014-020>022-031-032-NEZ013-014-SDZ071-122200-
NORTHWEST IOWA

CITY           SKY/WX    TMP DP  RH WIND       PRES   REMARKS
CHEROKEE       SUNNY     37  24  59 SW12      30.03F
DENISON        MOSUNNY   36  21  55 SW10G16   30.09F
ESTHERVILLE    SUNNY     34  25  69 W15       30.00F WCI  24
LE MARS        SUNNY     39  27  60 SW9       30.03F
ORANGE CITY    SUNNY     37  30  75 SW15      30.02F
SHELDON        MOSUNNY   37  28  70 SW10G16   29.99F
SIOUX CITY     SUNNY     43  29  57 SW12      30.04F
SPENCER        SUNNY     38  24  57 W14       30.01F
STORM LAKE     SUNNY     36  23  60 SW16      30.03F
$$

ABBREVIATIONS USED IN REMARKS
   TC - TEMPERATURE IN CELSIUS
  WCI - WIND CHILL INDEX
   HX - HEAT INDEX
  VSB - VISIBILITY





USA.gov is the U.S. government's official web portal to all federal, state and local government web resources and services.